Date String (YYYY-MM-DD hh:mm:ss) UTC,Instrument flags,absolute air pressure of the measurement (hPa),sample flow rate (lpm),inlet stack bypass flow (lpm),air temperature of the measurement (°C),ambient temperature measured by the external sensor (°C),aerosol sample conditioner tube jacket temperature (°C),OPC LED temperature (°C),internal box temperature (°C),relative humidity of the measurement (%),span deviation,mass concentration of particles derived from Lorenz-Mie calculation of OPC scattering (μg/m³),mass concentration of particles derived from Lorenz-Mie calculation of OPC scattering (μg/m³),mass concentration of particles derived from Lorenz-Mie calculation of OPC scattering (μg/m³)
DateTimeUTC,F1_M11,P_M11,Q1_M11,Q2_M11,T1_M11,T2_M11,T3_M11,T4_M11,T5_M11,U1_M11,ZSPAN_M11,X2_M11,X0_M11,X1_M11
2024-04-07 19:00:00,SystemResetWarning,0819.1,5.00,000.00,018.3,017.5,000.0,026.9,020.0,009.2,0000.0,0001.40,0003.97,0000.64
2024-04-07 19:01:00,SystemResetWarning,0819.2,5.00,000.00,018.3,017.5,000.0,026.9,020.0,009.0,0000.0,0001.40,0004.17,0000.63
2024-04-07 19:02:00,SystemResetWarning,0819.3,5.00,000.00,018.3,017.5,000.0,026.9,020.0,008.6,0000.0,0001.42,0004.65,0000.65
2024-04-07 19:03:00,SystemResetWarning,0819.3,5.00,000.00,018.3,017.5,000.0,026.9,020.0,008.7,0000.0,0001.39,0004.54,0000.66
2024-04-07 19:04:00,SystemResetWarning,0819.3,5.00,000.00,018.3,017.5,000.0,026.9,020.0,008.6,0000.0,0001.46,0005.46,0000.65
2024-04-07 19:05:00,SystemResetWarning,0819.3,5.00,000.00,018.3,017.5,000.0,026.9,020.0,008.8,0000.0,0001.46,0005.54,0000.65
2024-04-07 19:06:00,SystemResetWarning,0819.3,5.00,000.00,018.3,017.6,000.0,026.9,020.0,008.8,0000.0,0001.44,0005.62,0000.64
2024-04-07 19:07:00,SystemResetWarning,0819.2,5.00,000.00,018.3,017.6,000.0,026.9,020.0,009.1,0000.0,0001.46,0005.77,0000.63
2024-04-07 19:08:00,SystemResetWarning,0819.2,5.00,000.00,018.3,017.6,000.0,026.9,020.0,008.9,0000.0,0001.44,0005.60,0000.64
2024-04-07 19:09:00,SystemResetWarning,0819.4,5.00,000.00,018.3,017.6,000.0,026.9,020.0,008.7,0000.0,0001.42,0005.53,0000.64
2024-04-07 19:10:00,SystemResetWarning,0819.3,5.00,000.00,018.3,017.6,000.0,026.8,020.0,009.1,0000.0,0001.44,0006.23,0000.65
2024-04-07 19:11:00,SystemResetWarning,0819.3,5.01,000.00,018.3,017.6,000.0,026.8,020.0,009.4,0000.0,0001.44,0006.26,0000.66
2024-04-07 19:12:00,SystemResetWarning,0819.3,4.99,000.00,018.3,017.6,000.0,026.8,020.0,009.6,0000.0,0001.46,0005.90,0000.67
2024-04-07 19:13:00,SystemResetWarning,0819.3,4.99,000.00,018.3,017.6,000.0,026.9,020.0,009.4,0000.0,0001.46,0005.42,0000.67
2024-04-07 19:14:00,SystemResetWarning,0819.3,5.00,000.00,018.3,017.6,000.0,026.9,020.0,009.2,0000.0,0001.50,0005.53,0000.68
2024-04-07 19:15:00,SystemResetWarning,0819.3,5.01,000.00,018.3,017.6,000.0,026.9,020.0,009.5,0000.0,0001.46,0004.48,0000.70
2024-04-07 19:16:00,SystemResetWarning,0819.3,5.00,000.00,018.3,017.6,000.0,026.9,020.0,009.5,0000.0,0001.40,0004.18,0000.70
2024-04-07 19:17:00,SystemResetWarning,0819.1,5.01,000.00,018.3,017.6,000.0,026.9,020.0,009.5,0000.0,0001.39,0004.10,0000.71
2024-04-07 19:18:00,SystemResetWarning,0819.2,5.00,000.00,018.3,017.6,000.0,026.9,020.0,009.1,0000.0,0001.34,0003.93,0000.71
2024-04-07 19:19:00,SystemResetWarning,0819.2,5.00,000.00,018.3,017.6,000.0,026.8,020.0,009.2,0000.0,0001.34,0003.99,0000.71
2024-04-07 19:20:00,SystemResetWarning,0819.2,5.00,000.00,018.3,017.6,000.0,026.9,020.0,008.9,0000.0,0001.31,0003.63,0000.71
2024-04-07 19:21:00,SystemResetWarning,0819.1,5.00,000.00,018.3,017.6,000.0,026.9,020.0,008.9,0000.0,0001.26,0002.74,0000.70
2024-04-07 19:22:00,SystemResetWarning,0819.0,5.00,000.00,018.3,017.6,000.0,026.9,020.0,009.1,0000.0,0001.27,0002.71,0000.71
2024-04-07 19:23:00,SystemResetWarning,0818.8,5.00,000.00,018.3,017.6,000.0,026.9,020.0,009.1,0000.0,0001.25,0002.75,0000.71
2024-04-07 19:24:00,SystemResetWarning,0819.0,5.00,000.00,018.3,017.6,000.0,026.9,020.0,009.0,0000.0,0001.29,0002.79,0000.72
2024-04-07 19:25:00,SystemResetWarning,0819.0,5.00,000.00,018.3,017.6,000.0,026.8,020.0,009.3,0000.0,0001.27,0002.75,0000.71
2024-04-07 19:26:00,SystemResetWarning,0819.3,4.99,000.00,018.3,017.6,000.0,026.9,020.0,009.5,0000.0,0001.24,0002.67,0000.71
2024-04-07 19:27:00,SystemResetWarning,0819.2,5.00,000.00,018.4,017.6,000.0,026.9,020.0,009.7,0000.0,0001.26,0002.70,0000.71
2024-04-07 19:28:00,SystemResetWarning,0819.2,4.99,000.00,018.4,017.6,000.0,026.8,020.0,009.4,0000.0,0001.27,0002.73,0000.71
2024-04-07 19:29:00,SystemResetWarning,0819.2,5.00,000.00,018.4,017.6,000.0,026.9,020.0,009.3,0000.0,0001.29,0002.85,0000.71
2024-04-07 19:30:00,SystemResetWarning,0819.3,5.00,000.00,018.4,017.6,000.0,026.9,020.0,009.1,0000.0,0001.29,0002.80,0000.71
2024-04-07 19:31:00,SystemResetWarning,0819.2,5.01,000.00,018.4,017.6,000.0,026.9,020.0,009.4,0000.0,0001.33,0002.87,0000.71
2024-04-07 19:32:00,SystemResetWarning,0819.1,5.01,000.00,018.4,017.6,000.0,026.8,020.0,009.4,0000.0,0001.37,0003.13,0000.71
2024-04-07 19:33:00,SystemResetWarning,0819.2,5.01,000.00,018.4,017.6,000.0,026.8,020.0,009.2,0000.0,0001.37,0003.26,0000.69
2024-04-07 19:34:00,SystemResetWarning,0819.1,4.99,000.00,018.4,017.7,000.0,026.8,020.0,009.2,0000.0,0001.33,0003.04,0000.68
2024-04-07 19:35:00,SystemResetWarning,0819.1,4.99,000.00,018.3,017.7,000.0,026.8,020.0,009.4,0000.0,0001.27,0002.74,0000.68
2024-04-07 19:36:00,SystemResetWarning,0819.1,5.00,000.00,018.3,017.7,000.0,026.8,020.0,009.3,0000.0,0001.26,0002.70,0000.67
2024-04-07 19:37:00,SystemResetWarning,0819.1,5.01,000.00,018.3,017.7,000.0,026.8,020.0,009.3,0000.0,0001.30,0002.79,0000.66
2024-04-07 19:38:00,SystemResetWarning,0819.2,5.01,000.00,018.4,017.7,000.0,026.8,020.0,009.5,0000.0,0001.25,0002.74,0000.65
2024-04-07 19:39:00,SystemResetWarning,0819.3,4.99,000.00,018.4,017.7,000.0,026.8,020.0,009.5,0000.0,0001.24,0003.05,0000.64
2024-04-07 19:40:00,SystemResetWarning,0819.3,4.99,000.00,018.4,017.7,000.0,026.8,020.0,009.7,0000.0,0001.24,0003.00,0000.64
2024-04-07 19:41:00,SystemResetWarning,0819.3,5.00,000.00,018.4,017.7,000.0,026.8,020.0,009.4,0000.0,0001.22,0002.97,0000.64
2024-04-07 19:42:00,SystemResetWarning,0819.3,5.00,000.00,018.4,017.7,000.0,026.8,020.0,009.6,0000.0,0001.22,0002.99,0000.64
2024-04-07 19:43:00,SystemResetWarning,0819.3,5.01,000.00,018.4,017.7,000.0,026.8,020.0,009.7,0000.0,0001.22,0002.93,0000.63
2024-04-07 19:44:00,SystemResetWarning,0819.2,5.00,000.00,018.4,017.7,000.0,026.8,020.0,009.6,0000.0,0001.15,0002.59,0000.63
2024-04-07 19:45:00,SystemResetWarning,0819.2,5.00,000.00,018.4,017.8,000.0,026.8,020.0,009.5,0000.0,0001.17,0002.64,0000.63
2024-04-07 19:46:00,SystemResetWarning,0819.3,5.01,000.00,018.4,017.8,000.0,026.8,020.0,009.3,0000.0,0001.20,0002.84,0000.63
2024-04-07 19:47:00,SystemResetWarning,0819.3,5.01,000.00,018.4,017.8,000.0,026.8,020.0,009.6,0000.0,0001.20,0002.89,0000.63
2024-04-07 19:48:00,SystemResetWarning,0819.3,5.00,000.00,018.4,017.8,000.0,026.8,020.0,009.5,0000.0,0001.14,0002.72,0000.63
2024-04-07 19:49:00,SystemResetWarning,0819.2,5.00,000.00,018.4,017.8,000.0,026.8,020.0,009.4,0000.0,0001.17,0002.82,0000.62
2024-04-07 19:50:00,SystemResetWarning,0819.2,5.00,000.00,018.4,017.8,000.0,026.8,020.0,009.5,0000.0,0001.20,0002.72,0000.63
2024-04-07 19:51:00,SystemResetWarning,0819.3,4.99,000.00,018.4,017.8,000.0,026.8,020.0,009.1,0000.0,0001.22,0002.51,0000.64
2024-04-07 19:52:00,SystemResetWarning,0819.1,4.99,000.00,018.4,017.8,000.0,026.8,020.0,009.2,0000.0,0001.23,0002.57,0000.64
2024-04-07 19:53:00,SystemResetWarning,0819.2,5.00,000.00,018.4,017.8,000.0,026.8,020.0,009.5,0000.0,0001.26,0002.62,0000.64
2024-04-07 19:54:00,SystemResetWarning,0819.3,5.00,000.00,018.4,017.8,000.0,026.8,020.0,009.6,0000.0,0001.29,0002.76,0000.65
2024-04-07 19:55:00,SystemResetWarning,0819.3,5.00,000.00,018.4,017.8,000.0,026.8,020.0,009.8,0000.0,0001.32,0002.95,0000.66
2024-04-07 19:56:00,SystemResetWarning,0819.2,5.00,000.00,018.4,017.8,000.0,026.8,020.0,010.0,0000.0,0001.36,0003.20,0000.66
2024-04-07 19:57:00,SystemResetWarning,0819.4,5.00,000.00,018.4,017.8,000.0,026.8,020.0,010.0,0000.0,0001.38,0003.22,0000.66
2024-04-07 19:58:00,SystemResetWarning,0819.4,5.00,000.00,018.4,017.9,000.0,026.8,020.0,009.7,0000.0,0001.39,0003.18,0000.67
2024-04-07 19:59:00,SystemResetWarning,0819.3,5.00,000.00,018.4,017.9,000.0,026.8,020.0,009.7,0000.0,0001.38,0003.13,0000.68
